Stations météo

réclame
Mon MeteoGroup
Tholey, Allemagne (10706): Température de l'air & dewpoint: 15.02.2019 15:00:00 - 21.02.2019 15:00:00 (CET)Tholey, Allemagne (10706): Température de l'air 5cm & Température de l'air -5cm: 15.02.2019 15:00:00 - 21.02.2019 15:00:00 (CET)Tholey, Allemagne (10706): Température de l'air -20cm & Température de l'air -100cm: 15.02.2019 15:00:00 - 21.02.2019 15:00:00 (CET)Tholey, Allemagne (10706): Vitesse du vent & gusts: 15.02.2019 15:00:00 - 21.02.2019 15:00:00 (CET)Tholey, Allemagne (10706): Direction du vent: 15.02.2019 15:00:00 - 21.02.2019 15:00:00 (CET)Tholey, Allemagne (10706): reduced air pressure: 15.02.2019 15:00:00 - 21.02.2019 15:00:00 (CET)Tholey, Allemagne (10706): visibility: 15.02.2019 15:00:00 - 21.02.2019 15:00:00 (CET)Tholey, Allemagne (10706): Ensoleillement: 15.02.2019 15:00:00 - 21.02.2019 15:00:00 (CET)Tholey, Allemagne (10706): Quantités de précipitations: 15.02.2019 15:00:00 - 21.02.2019 15:00:00 (CET)
Date & Time tt [°C] td [°C] tt 5cm [°C] tt -5cm [°C] tt -20cm [°C] tt -100cm [°C] ff [km/h] ff [knt] fx [km/h] fx [knt] dd ppp [hPa] vv [km] sd [min] rr [mm]
21.02.2019 15:00:00 11,4 5,2 11,5 11,0 4,9 5,0 21 12 36 19 WSW 1027,8 - 37 0,0
21.02.2019 14:00:00 11,0 5,5 13,2 11,5 4,5 5,0 13 7 21 12 WSW 1028,3 9 44 0,0
21.02.2019 13:00:00 9,5 4,9 11,5 9,6 4,2 5,0 10 5 16 9 W 1028,8 8 38 0,0
21.02.2019 12:00:00 8,1 4,6 9,3 8,4 3,9 5,0 10 6 16 8 WSW 1029,3 6 13 0,0
21.02.2019 11:00:00 6,9 4,3 7,9 7,4 3,7 5,0 8 5 11 6 W 1029,5 4,1 23 0,0
21.02.2019 10:00:00 6,5 3,8 7,5 6,1 3,7 5,0 4 2 5 3 W 1029,2 4,2 48 0,0
21.02.2019 09:00:00 4,4 3,2 4,2 3,2 3,7 5,0 5 3 9 5 WSW 1029,1 2,4 7 0,0
21.02.2019 08:00:00 4,4 3,2 2,4 2,8 3,7 5,0 5 3 6 3 WSW 1028,6 3,3 0 0,0
21.02.2019 07:00:00 4,4 3,1 3,2 2,9 3,8 5,0 2 1 4 2 NNW 1028,4 3,2 0 0,0
21.02.2019 06:00:00 4,6 3,3 2,8 2,7 3,8 5,0 4 2 6 3 S 1028,0 3,7 0 0,0
21.02.2019 05:00:00 4,7 3,0 1,2 3,0 3,8 5,0 4 2 6 3 SE 1028,2 4,3 0 0,0
21.02.2019 04:00:00 6,7 3,3 5,0 3,2 3,9 5,0 7 4 10 5 W 1027,9 12 0 0,0
21.02.2019 03:00:00 6,3 3,3 5,0 2,9 3,9 5,0 7 4 9 5 W 1027,7 9 0 0,0
21.02.2019 02:00:00 5,3 3,0 3,2 2,5 4,1 5,0 5 3 9 5 W 1027,6 6 0 0,0
21.02.2019 01:00:00 5,4 3,1 2,7 2,0 4,2 5,0 5 3 6 4 W 1027,6 8 0 0,0
21.02.2019 00:00:00 5,6 3,0 1,7 2,2 4,4 5,0 3 1 4 2 SW 1027,2 9 0 0,0
20.02.2019 23:00:00 6,1 3,0 1,2 2,3 4,6 5,0 0 0 2 1 N 1026,8 10 0 0,0
20.02.2019 22:00:00 6,6 3,2 1,2 2,8 4,7 5,0 0 0 3 2 NW 1026,6 12 0 0,0
20.02.2019 21:00:00 6,8 3,0 1,3 3,3 4,9 5,0 2 1 3 2 WSW 1026,4 12 0 0,0
20.02.2019 20:00:00 7,0 3,2 1,2 4,1 5,0 5,0 3 2 4 2 W 1026,1 12 0 0,0
20.02.2019 19:00:00 7,4 3,1 2,0 5,3 4,9 5,0 3 2 9 5 SW 1025,7 16 0 0,0
20.02.2019 18:00:00 8,0 3,0 4,7 7,0 4,8 5,0 8 4 17 9 SW 1025,2 16 47 0,0
20.02.2019 17:00:00 9,1 3,3 9,1 8,3 4,5 5,0 9 5 19 10 W 1025,0 15 54 0,0
20.02.2019 16:00:00 8,9 3,7 9,2 9,7 4,1 5,0 13 7 25 13 WSW 1025,0 18 40 0,0
20.02.2019 15:00:00 8,6 2,8 9,9 9,9 3,7 5,0 18 10 26 14 WSW 1025,0 25 56 0,0
20.02.2019 14:00:00 7,8 2,3 9,4 9,4 3,3 5,0 14 7 19 10 WSW 1025,5 17 45 0,0
20.02.2019 13:00:00 7,4 3,3 10,8 9,2 2,9 5,0 13 7 16 9 WSW 1025,7 8 60 0,0
20.02.2019 12:00:00 5,8 3,5 9,4 6,6 2,8 4,9 8 5 10 6 WSW 1026,0 6 60 0,0
20.02.2019 11:00:00 3,2 1,6 6,2 3,0 2,8 4,9 3 2 4 2 ESE 1026,2 0,6 60 0,0
20.02.2019 10:00:00 0,6 -0,6 2,1 0,5 2,9 4,9 4 2 6 3 E 1026,3 0,5 48 0,0
20.02.2019 09:00:00 0,4 0,3 -0,9 0,4 3,0 4,9 6 3 8 4 ENE 1025,6 0,2 1 0,0
20.02.2019 08:00:00 0,7 0,5 -2,1 0,4 3,1 4,9 3 1 4 2 E 1025,1 0,2 0 0,0
20.02.2019 07:00:00 1,4 1,1 -1,8 0,5 3,2 4,9 3 2 5 3 SW 1024,6 1,8 0 0,0
20.02.2019 06:00:00 1,5 1,1 -2,6 0,6 3,3 4,9 4 2 5 3 W 1024,4 3,4 0 0,0
20.02.2019 05:00:00 1,5 1,2 -2,5 0,7 3,4 4,9 0 0 3 2 N 1024,2 3,0 0 0,0
20.02.2019 04:00:00 1,8 1,3 -2,0 0,8 3,6 4,9 1 0 6 3 SE 1024,0 4,0 0 0,0
20.02.2019 03:00:00 1,7 0,9 -1,7 0,9 3,7 4,9 3 1 9 5 S 1024,4 4,0 0 0,0
20.02.2019 02:00:00 3,3 1,5 0,0 1,0 3,9 4,9 6 3 8 4 W 1024,2 13 0 0,0
20.02.2019 01:00:00 2,4 1,4 -1,7 1,0 4,1 4,9 3 2 7 4 SW 1024,2 11 0 0,0
20.02.2019 00:00:00 3,4 1,6 -0,4 1,5 4,2 4,9 8 4 10 6 W 1024,0 18 0 0,0
19.02.2019 23:00:00 3,3 1,4 0,7 2,0 4,4 4,9 9 5 13 7 W 1023,9 20 0 0,0
19.02.2019 22:00:00 4,1 1,6 1,3 2,3 4,6 4,9 10 5 13 7 W 1023,7 25 0 0,0
19.02.2019 21:00:00 4,4 1,6 1,3 2,8 4,7 4,9 9 5 14 7 W 1023,6 30 0 0,0
19.02.2019 20:00:00 5,2 1,8 2,7 3,3 4,8 4,9 11 6 15 8 W 1023,0 42 0 0,0
19.02.2019 19:00:00 5,2 1,7 1,7 4,2 4,9 4,9 11 6 17 9 W 1022,7 43 0 0,0
19.02.2019 18:00:00 6,6 1,9 4,6 5,5 4,8 4,9 14 7 29 16 W 1022,0 24 34 0,0
19.02.2019 17:00:00 7,9 2,0 7,7 6,8 4,6 4,9 18 10 29 16 W 1021,8 45 43 0,0
19.02.2019 16:00:00 7,6 2,0 7,9 7,9 4,4 4,9 19 10 36 19 W 1021,9 37 56 0,0
19.02.2019 15:00:00 7,0 3,0 7,6 7,6 4,1 4,8 24 13 35 19 W 1022,0 37 21 0,0
19.02.2019 14:00:00 7,1 3,3 8,3 7,7 3,9 4,8 19 10 27 15 WSW 1022,0 42 10 0,0
19.02.2019 13:00:00 6,3 3,9 7,7 7,3 3,6 4,8 16 9 20 11 WSW 1022,6 15 20 0,0
19.02.2019 12:00:00 4,7 3,5 6,7 5,4 3,5 4,8 11 6 19 10 WSW 1023,0 7 5 0,0
19.02.2019 11:00:00 3,8 2,5 4,4 4,0 3,5 4,8 8 5 13 7 W 1022,6 9 0 0,0
19.02.2019 10:00:00 3,2 2,2 3,4 3,1 3,4 4,8 8 4 15 8 W 1022,1 7 0 0,2
19.02.2019 09:00:00 3,4 1,1 3,1 2,5 3,5 4,8 11 6 19 11 W 1021,7 12 0 0,2
19.02.2019 08:00:00 3,7 0,5 3,1 2,0 3,6 4,8 10 6 15 8 W 1020,7 16 0 0,0
19.02.2019 07:00:00 3,9 0,5 2,6 1,5 3,7 4,8 8 4 10 5 W 1019,9 18 0 0,0
19.02.2019 06:00:00 3,8 0,0 1,3 1,2 3,8 4,8 8 5 10 5 W 1019,8 23 0 0,0
19.02.2019 05:00:00 4,4 0,2 0,9 1,3 4,0 4,8 6 3 11 6 WSW 1019,5 28 0 0,0
19.02.2019 04:00:00 4,7 0,0 0,8 1,4 4,1 4,8 8 4 11 6 W 1019,4 31 0 0,0
19.02.2019 03:00:00 5,5 0,4 1,0 1,7 4,3 4,8 8 4 15 8 WSW 1019,6 30 0 0,0
19.02.2019 02:00:00 5,7 0,5 1,0 2,1 4,4 4,8 8 5 15 8 WSW 1019,6 36 0 0,0
19.02.2019 01:00:00 6,5 0,4 3,7 2,5 4,6 4,8 13 7 16 9 W 1019,3 41 0 0,0
19.02.2019 00:00:00 7,0 0,5 3,6 2,6 4,8 4,8 12 7 17 9 W 1019,2 45 0 0,0
18.02.2019 23:00:00 6,7 0,3 3,7 3,0 5,0 4,8 13 7 14 8 W 1019,2 46 0 0,0
18.02.2019 22:00:00 7,4 0,3 4,0 3,4 5,2 4,8 11 6 17 9 W 1019,1 45 0 0,0
18.02.2019 21:00:00 8,1 0,2 5,0 3,8 5,3 4,7 11 6 14 8 W 1018,9 60 0 0,0
18.02.2019 20:00:00 8,4 -0,2 4,4 4,7 5,4 4,7 11 6 18 10 WSW 1018,7 59 0 0,0
18.02.2019 19:00:00 9,5 -0,7 6,4 5,8 5,4 4,7 13 7 29 16 WSW 1018,6 70 0 0,0
18.02.2019 18:00:00 11,3 -1,8 8,0 7,4 5,3 4,7 16 9 22 12 SW 1018,0 70 36 0,0
18.02.2019 17:00:00 12,5 -0,5 11,1 9,0 5,0 4,7 15 8 30 16 SW 1017,7 70 60 0,0
18.02.2019 16:00:00 13,0 0,7 12,8 9,9 4,7 4,7 17 9 34 18 SSW 1018,1 48 59 0,0
18.02.2019 15:00:00 13,4 -1,3 15,0 10,7 4,3 4,7 21 12 38 20 SW 1018,1 56 60 0,0
18.02.2019 14:00:00 12,4 1,0 14,5 10,6 3,8 4,7 23 13 38 21 SW 1018,9 29 60 0,0
18.02.2019 13:00:00 11,2 0,0 13,3 10,0 3,4 4,7 24 13 41 22 SSW 1020,0 29 60 0,0
18.02.2019 12:00:00 9,8 0,6 12,3 8,8 3,1 4,7 18 10 31 17 SW 1021,2 29 60 0,0
18.02.2019 11:00:00 8,4 1,3 10,7 6,1 3,1 4,7 5 3 8 4 WSW 1021,8 39 60 0,0
18.02.2019 10:00:00 6,3 0,0 7,4 2,3 3,1 4,7 7 4 12 7 WSW 1022,3 30 60 0,0
18.02.2019 09:00:00 5,6 -0,8 4,4 0,7 3,2 4,7 8 4 12 6 WSW 1022,7 36 60 0,0
18.02.2019 08:00:00 5,5 -1,0 0,0 0,7 3,4 4,7 6 3 8 4 SSW 1022,5 43 5 0,0
18.02.2019 07:00:00 6,1 -1,1 0,2 0,7 3,5 4,7 6 3 11 6 SW 1022,4 45 0 0,0
18.02.2019 06:00:00 5,8 -1,3 -1,2 0,8 3,7 4,6 2 1 7 4 S 1022,4 51 0 0,0
18.02.2019 05:00:00 6,6 -1,8 0,7 0,9 3,8 4,6 6 3 8 4 SSW 1022,4 52 0 0,0
18.02.2019 04:00:00 6,9 -2,4 0,2 1,0 4,0 4,6 2 1 4 2 ENE 1022,3 66 0 0,0
18.02.2019 03:00:00 7,8 -2,5 0,3 1,0 4,2 4,6 3 1 6 3 W 1022,6 66 0 0,0
18.02.2019 02:00:00 8,2 -2,1 0,8 1,3 4,5 4,6 2 1 9 5 ENE 1022,6 66 0 0,0
18.02.2019 01:00:00 8,7 -2,2 0,8 1,7 4,7 4,6 2 1 5 3 S 1022,7 70 0 0,0
18.02.2019 00:00:00 9,4 -2,4 1,3 2,1 4,9 4,6 4 2 6 3 SW 1022,5 70 0 0,0
17.02.2019 23:00:00 10,3 -1,9 1,4 2,6 5,2 4,6 0 0 7 4 N 1022,5 70 0 0,0
17.02.2019 22:00:00 10,4 -2,1 2,3 3,2 5,4 4,6 3 2 7 4 ENE 1022,7 70 0 0,0
17.02.2019 21:00:00 11,2 -1,9 2,4 4,0 5,6 4,6 4 2 10 6 WSW 1022,5 70 0 0,0
17.02.2019 20:00:00 12,1 -2,0 4,0 5,0 5,7 4,6 5 3 9 5 SW 1022,3 70 0 0,0
17.02.2019 19:00:00 12,6 -2,2 5,1 6,3 5,7 4,6 6 3 8 5 SSW 1022,0 70 0 0,0
17.02.2019 18:00:00 13,5 -2,2 6,7 8,3 5,5 4,6 6 3 18 10 SW 1021,6 70 58 0,0
17.02.2019 17:00:00 14,6 -1,3 13,0 10,2 5,2 4,6 12 7 23 12 WSW 1021,7 53 60 0,0
17.02.2019 16:00:00 15,1 -1,0 15,1 11,6 4,8 4,6 14 7 19 11 SW 1021,9 20 60 0,0
17.02.2019 15:00:00 14,3 -0,2 16,0 11,7 4,3 4,6 13 7 22 12 SSW 1022,4 39 60 0,0
17.02.2019 14:00:00 13,3 -0,7 15,6 11,4 3,8 4,5 15 8 23 12 WSW 1023,1 29 60 0,0
17.02.2019 13:00:00 12,1 -0,8 14,6 10,2 3,4 4,5 16 9 25 13 WSW 1023,9 23 60 0,0
17.02.2019 12:00:00 11,3 0,3 13,3 8,7 3,1 4,5 16 9 23 12 SSW 1024,6 26 60 0,0
17.02.2019 11:00:00 9,5 0,0 10,9 6,3 3,0 4,5 11 6 16 9 SSW 1024,9 25 60 0,0
17.02.2019 10:00:00 7,6 -1,1 7,6 3,7 3,0 4,5 8 5 14 8 SW 1025,4 24 60 0,0
17.02.2019 09:00:00 7,0 -1,2 5,1 1,0 3,1 4,5 5 3 13 7 SSW 1025,7 22 60 0,0
17.02.2019 08:00:00 6,7 -1,0 1,1 0,8 3,2 4,5 4 2 11 6 S 1025,5 24 3 0,0
17.02.2019 07:00:00 5,7 -0,3 0,7 0,8 3,4 4,5 8 4 10 5 NE 1025,5 16 0 0,0
17.02.2019 06:00:00 5,4 -0,1 0,2 0,8 3,6 4,5 9 5 11 6 ENE 1025,8 16 0 0,0
17.02.2019 05:00:00 6,1 0,0 0,2 0,8 3,8 4,5 6 3 7 4 ENE 1025,9 18 0 0,0
17.02.2019 04:00:00 6,4 0,2 0,7 1,1 3,9 4,5 3 2 7 4 E 1026,0 19 0 0,0
17.02.2019 03:00:00 6,9 0,5 0,9 1,5 4,1 4,5 5 3 9 5 ENE 1026,1 18 0 0,0
17.02.2019 02:00:00 8,0 0,5 1,7 1,9 4,3 4,5 8 5 10 5 ENE 1026,0 19 0 0,0
17.02.2019 01:00:00 8,6 0,9 1,7 2,2 4,5 4,5 8 4 9 5 ENE 1026,3 17 0 0,0
17.02.2019 00:00:00 8,2 0,9 1,8 2,5 4,8 4,5 8 5 9 5 NE 1026,6 17 0 0,0
16.02.2019 23:00:00 9,4 1,2 2,3 2,9 5,0 4,5 8 4 9 5 ENE 1026,7 16 0 0,0
16.02.2019 22:00:00 8,7 1,2 1,9 3,4 5,2 4,5 8 4 9 5 ENE 1026,9 15 0 0,0
16.02.2019 21:00:00 10,6 1,5 3,4 4,1 5,4 4,5 5 3 6 3 ENE 1026,6 17 0 0,0
16.02.2019 20:00:00 10,6 1,8 3,3 5,0 5,5 4,4 0 0 5 3 N 1026,8 16 0 0,0
16.02.2019 19:00:00 10,0 1,4 3,9 6,3 5,5 4,4 3 2 6 3 SE 1027,1 16 0 0,0
16.02.2019 18:00:00 12,0 1,6 5,8 8,3 5,3 4,4 5 3 11 6 WSW 1026,7 16 44 0,0
16.02.2019 17:00:00 13,2 1,2 12,0 10,3 4,9 4,4 9 5 13 7 W 1026,7 19 60 0,0
16.02.2019 16:00:00 13,3 1,5 13,7 11,6 4,5 4,4 10 5 16 9 W 1026,8 19 60 0,0
16.02.2019 15:00:00 12,8 1,7 14,9 11,9 4,0 4,4 11 6 17 9 WSW 1027,2 20 60 0,0
16.02.2019 14:00:00 12,2 1,5 15,0 11,8 3,4 4,4 10 5 14 8 WSW 1027,7 17 60 0,0
16.02.2019 13:00:00 11,0 1,6 14,1 10,6 3,0 4,4 7 4 12 6 WSW 1028,3 16 60 0,0
16.02.2019 12:00:00 9,5 1,2 12,3 8,6 2,7 4,4 6 4 13 7 WSW 1028,9 18 60 0,0
16.02.2019 11:00:00 9,0 2,2 10,4 5,7 2,7 4,4 3 2 8 5 S 1028,9 15 60 0,0
16.02.2019 10:00:00 5,5 0,5 6,8 2,0 2,7 4,4 5 3 8 5 E 1029,6 18 60 0,0
16.02.2019 09:00:00 4,5 -0,3 3,6 0,7 2,8 4,4 6 4 10 5 ENE 1029,8 16 60 0,0
16.02.2019 08:00:00 3,8 -1,0 -1,0 0,7 3,0 4,4 4 2 7 4 ENE 1029,6 27 0 0,0
16.02.2019 07:00:00 4,2 -1,1 -0,9 0,7 3,1 4,4 3 2 7 4 E 1029,2 33 0 0,0
16.02.2019 06:00:00 5,2 -1,1 -0,3 0,8 3,2 4,4 6 4 8 5 ENE 1029,0 32 0 0,0
16.02.2019 05:00:00 5,9 -1,0 -0,2 0,8 3,4 4,4 4 2 6 3 ENE 1029,1 41 0 0,0
16.02.2019 04:00:00 4,3 -1,3 -0,6 0,8 3,6 4,4 4 2 7 4 E 1029,5 40 0 0,0
16.02.2019 03:00:00 8,0 -1,0 1,4 1,4 3,8 4,4 7 4 14 8 NE 1029,1 43 0 0,0
16.02.2019 02:00:00 6,6 -1,1 0,9 1,6 4,0 4,4 12 6 16 9 NE 1029,4 45 0 0,0
16.02.2019 01:00:00 5,9 -1,2 0,5 2,0 4,2 4,4 11 6 16 9 NE 1029,7 42 0 0,0
16.02.2019 00:00:00 7,0 -0,9 1,6 2,5 4,3 4,4 13 7 18 10 NE 1029,6 46 0 0,0
15.02.2019 23:00:00 7,4 -0,7 3,3 3,0 4,5 4,3 16 9 21 11 NE 1029,8 44 0 0,0
15.02.2019 22:00:00 8,1 -0,8 4,0 3,5 4,7 4,3 16 9 22 12 NE 1029,8 53 0 0,0
15.02.2019 21:00:00 8,3 -0,4 4,4 4,0 4,8 4,3 16 9 23 12 NE 1029,9 50 0 0,0
15.02.2019 20:00:00 8,9 0,2 5,0 4,7 4,9 4,3 18 10 25 13 NE 1030,0 46 0 0,0
15.02.2019 19:00:00 9,3 0,7 5,6 5,7 4,9 4,3 16 9 23 12 ENE 1030,2 40 0 0,0
15.02.2019 18:00:00 10,6 0,9 6,5 7,3 4,8 4,3 14 7 18 10 ENE 1029,9 53 55 0,0
15.02.2019 17:00:00 12,2 0,8 11,7 9,2 4,4 4,3 13 7 21 12 E 1029,9 42 60 0,0
15.02.2019 16:00:00 13,0 0,6 14,0 10,4 4,0 4,3 13 7 19 10 E 1030,2 47 60 0,0
15.02.2019 15:00:00 12,9 -0,5 15,5 10,7 3,5 4,3 15 8 21 12 E 1030,6 35 60 0,0

tt = Température de l'air
td = dewpoint
tt 5cm = Température de l'air 5cm
tt -5cm = Température de l'air -5cm
tt -20cm = Température de l'air -20cm
tt -100cm = Température de l'air -100cm
ff = Vitesse du vent
fx = gusts
dd = Direction du vent
ppp = reduced air pressure
vv = visibility
sd = Ensoleillement
rr = Quantités de précipitations

stations d'obs. à proximité